Regional Weather Roundup
Issued by NWS Albany, NY

Home | Current Version | Previous Version | Text Only | Print | Product List | Glossary On
Versions: 1 2 3 4 5 6 7 8 9 10 11 12 13 14 15 16 17 18 19 20 21 22 23 24 25 26 27 28 29 30 31 32 33 34 35 36 37 38 39 40 41 42 43 44 45 46 47 48 49 50
000
ASUS41 KALY 030010
RWRALY

NEW YORK STATE HOURLY WEATHER ROUNDUP
NATIONAL WEATHER SERVICE ALBANY NY
800 PM EDT SAT MAY 02 2015

NOTE: "FAIR" INDICATES FEW OR NO CLOUDS BELOW 12,000 FEET WITH NO
SIGNIFICANT WEATHER AND/OR NO OBSTRUCTIONS TO VISIBILITY.

NYZ032-033-038>043-046>054-057>066-NYZ062>081-030100-
EAST


CITY           SKY/WX    TMP DP  RH WIND       PRES   REMARKS
ALBANY         MOCLDY    71  32  23 W10       29.90R
GLENS FALLS    MOCLDY    68  41  37 SE8       29.87R
POUGHKEEPSIE   PTCLDY    66  43  43 SE6       29.92R
MONTGOMERY     PTCLDY    64  44  48 S6        29.92R
WHITE PLAINS   PTCLDY    52  40  63 S5        29.97R
ISLIP          PTCLDY    48  38  68 S7        30.00R
NEW YORK CITY  PTCLDY    51  38  60 S12       29.99R
CENTRAL PARK   CLEAR     52  38  58 S6        30.02R
$$

NYZ005>009-017-018-044>046-055-056-030100-
CENTRAL


CITY           SKY/WX    TMP DP  RH WIND       PRES   REMARKS
FULTON         CLEAR     63  35  35 W7        29.97S
SYRACUSE       PTCLDY    65  36  34 NW7       29.97R
ROME           CLEAR     61  37  41 NW8       29.97R
ELMIRA         PTCLDY    64  35  34 N6        29.97R
BINGHAMTON     PTCLDY    62  31  31 N8        29.98R
MONTICELLO     PTCLDY    63  36  36 NW8       29.97R
$$

NYZ026>034-041>043-030100-
NORTH


CITY           SKY/WX    TMP DP  RH WIND       PRES   REMARKS
WATERTOWN      CLEAR     60  34  37 S8        29.95S
FORT DRUM      NOT AVBL
MASSENA        CLEAR     67  38  34 SW12      29.91R
SARANAC LAKE   PTCLDY    59  31  34 CALM      29.93R
PLATTSBURGH    PTCLDY    63  40  42 CALM      29.89R
$$

NYZ001>004-010>016-019>021-030100-
WEST


CITY           SKY/WX    TMP DP  RH WIND       PRES   REMARKS
NIAGARA FALLS  PTCLDY    60  35  39 SW10      29.99R
BUFFALO        PTCLDY    56  36  47 SW13      30.00S
DUNKIRK        CLEAR     61  29  29 SW6       30.02S
JAMESTOWN      CLEAR     63  30  29 W7        30.04S
WELLSVILLE     CLEAR     62  26  25 N10       30.03R
ROCHESTER      PTCLDY    69  34  27 NW5       29.97S
PENN YAN       PTCLDY    65  39  38 CALM      29.99R
$$

             KEY
       WCI = WIND CHILL INDEX
       VSB = VISIBILITY
       HX  = HEAT INDEX
$$



USA.gov is the U.S. government's official web portal to all federal, state and local government web resources and services.